Regional Weather Roundup
Issued by NWS

Current Version | Previous Version | Text Only | Print | Product List | Glossary On
Versions: 1 2 3 4 5 6 7 8 9 10 11 12 13 14 15 16 17 18 19 20 21 22 23 24 25 26 27 28 29 30 31 32 33 34 35 36 37 38 39 40 41 42 43 44 45 46 47 48 49 50
000
ASUS43 KDMX 152006
RWRIA

WEATHER ROUNDUP FOR IOWA
NATIONAL WEATHER SERVICE DES MOINES IA
300 PM CDT SAT JUN 15 2019

NOTE: "FAIR" INDICATES FEW OR NO CLOUDS BELOW 12,000 FEET WITH NO
SIGNIFICANT WEATHER AND/OR OBSTRUCTIONS TO VISIBILITY.

* - THESE STATIONS ARE NOT NWS STATIONS...THUS NOT UNDER NWS
QUALITY CONTROL.  THEY ALSO DO NOT REPORT WEATHER SUCH
AS PRECIPITATION OR FOG.

IAZ001>003-012>014-020>022-031>034-043>046-152100-
   NORTHWEST IOWA

CITY           SKY/WX    TMP DP  RH WIND       PRES   REMARKS
CARROLL *      MOSUNNY   90  66  45 W16G24    29.64S HX  92
CHEROKEE *     SUNNY     76  68  76 N3        29.67F
DENISON *      SUNNY     86  68  54 W17       29.69S HX  89
LE MARS *      SUNNY     84  64  51 W18G28    29.67S HX  86
SHELDON *      SUNNY     82  61  47 W13       29.65F HX  83
SIOUX CITY     SUNNY     83  63  50 NW20G29   29.68S HX  84
SPENCER        TSTM      73  61  65 W16G37    29.67R
STORM LAKE *   LGT RAIN  70  64  83 SW14G32   29.63S
$$

IAZ055>058-069>071-079>083-090>094-152100-
   SOUTHWEST IOWA

CITY           SKY/WX    TMP DP  RH WIND       PRES   REMARKS
ATLANTIC *     SUNNY     81  68  65 W15       29.68R HX  83
AUDUBON *      SUNNY     88  70  55 CALM      29.68S HX  92
CLARINDA *     MOSUNNY   82  70  65 W9        29.73F HX  86
COUNCIL BLFS * CLOUDY    73  70  88 W9        29.72R
CRESTON *      PTSUNNY   82  68  61 SW14      29.70S HX  85
HARLAN  *      SUNNY     82  68  61 W18G25    29.69S HX  85
LAMONI         PTSUNNY   84  66  54 SW15G23   29.71S HX  86
RED OAK *      MOSUNNY   82  70  65 W14       29.71S HX  86
SHENANDOAH *   MOSUNNY   81  70  69 W10       29.72R HX  84
$$

IAZ047>049-059>061-072>074-084-152100-
   CENTRAL IOWA

CITY           SKY/WX    TMP DP  RH WIND       PRES   REMARKS
AMES           MOSUNNY   85  67  54 S14G20    29.63F HX  87
ANKENY *       MOSUNNY   86  66  51 SW10G16   29.66F HX  88
BOONE *        SUNNY     86  68  54 S10G18    29.63S HX  89
CHARITON *     MOSUNNY   84  70  61 SW13      29.69F HX  88
DES MOINES     PTSUNNY   85  65  51 SW9       29.65F HX  86
GRINNELL*      SUNNY     78  69  73 S8        29.71S HX  80
KNOXVILLE *    MOSUNNY   82  68  61 SW12G17   29.68F HX  85
MARSHALLTOWN   SUNNY     81  69  67 SE14      29.65F HX  84
NEWTON *       MOSUNNY   81  72  74 S12G17    29.67S HX  84
PELLA *        SUNNY     82  67  59 S8        29.69F HX  84
PERRY *        PTSUNNY   89  62  41 SW13G18   29.64F HX  89
$$

IAZ004>006-015-016-023>025-035-036-152100-
   NORTH CENTRAL IOWA

CITY           SKY/WX    TMP DP  RH WIND       PRES   REMARKS
ALGONA *       MOSUNNY   72  68  88 S12       29.65R
CLARION *      PTSUNNY   73  63  68 NE10G17   29.65R
ESTHERVILLE    LGT RAIN  69  61  75 NE18      29.65R
FORT DODGE *   TSTM      69  63  81 W16G32    29.68R
MASON CITY     PTSUNNY   79  68  69 S13       29.66S HX  81
FOREST CITY *  LGT RAIN  70  68  94 E13G23    29.68R
IOWA FALLS *   RAIN      68  60  75 E7        29.67S
$$

IAZ007>011-017>019-026>030-037>042-050>054-066-152100-
   NORTHEAST IOWA

CITY           SKY/WX    TMP DP  RH WIND       PRES   REMARKS
CEDAR RAPIDS   FAIR      73  67  81 S9        29.70F
CHARLES CITY * PTSUNNY   81  64  57 SE14      29.67S HX  82
CLINTON *      CLOUDY    72  70  93 S7        29.75F
DECORAH *      FAIR      79  64  61 E12       29.68F HX  81
DUBUQUE        CLOUDY    73  64  73 S12       29.73S
MONTICELLO *   PTSUNNY   75  68  78 S14G21    29.71S
OELWEIN *      FAIR      79  68  69 S14       29.69S HX  81
WATERLOO       FAIR      78  66  66 S15       29.67S HX  80
$$

IAZ064-065-067-068-078-152100-
   EAST CENTRAL IOWA

CITY           SKY/WX    TMP DP  RH WIND       PRES   REMARKS
DAVENPORT      CLOUDY    72  68  87 S8        29.75F
IOWA CITY      PTSUNNY   75  69  81 S8        29.71F
MT. PLEASANT * MOSUNNY   79  70  73 SW10      29.72F HX  81
MUSCATINE *    FAIR      77  68  73 SW9       29.72F
QUAD CITIES    FAIR      75  68  78 SW9       29.73S
$$

IAZ062-063-075>077-085>089-095>099-152100-
   SOUTHEAST IOWA

CITY           SKY/WX    TMP DP  RH WIND       PRES   REMARKS
BURLINGTON     SUNNY     75  67  76 SE7       29.73F
FAIRFIELD *    PTSUNNY   79  68  69 SW13      29.71F HX  81
FORT MADISON * SUNNY     75  70  83 S6        29.74F
KEOKUK *       MOSUNNY   75  70  83 S8        29.74R
OSKALOOSA *      N/A     81  68  63 SW16      29.70F HX  84
CENTERVILLE *  FAIR      82  72  69 S9        29.73F HX  87
OTTUMWA        PTSUNNY   82  68  62 S13       29.70F HX  85
WASHINGTON *   MOSUNNY   77  77 100 S12G18    29.71F
$$

ABBREVIATIONS USED IN REMARKS
   TC - TEMPERATURES IN CELSIUS
  WCI - WIND CHILL INDEX
   HX - HEAT INDEX
  VSB - VISIBILITY
$$





USA.gov is the U.S. government's official web portal to all federal, state and local government web resources and services.